Escondido (450, 452, 454, 455) Station Data

Red Flag Warning: No
Fire Weather Zone: 250
SDGE Region: North East
Lat/Lon: 33.159/-117.031

Observations

Time Wind Speed/Gust Temp(F) RH Fuel Moist Fuel Temp(F) Dewpt(F) Tmax(F) Tmin(F) Accum Precip 10-min Precip SL Press(mb)
6/22 4:50am 12 1 G 4 61° 87% - - 57° 63.6° 59.9° - - -
6/22 4:40am 22 2 G 4 61° 87% - - 57° 63.6° 59.9° - - -
6/22 4:30am 26 2 G 4 61° 87% - - 57° 63.6° 59.9° - - -
6/22 4:20am 13 3 G 4 61° 86% - - 57° 63.6° 59.9° - - -
6/22 4:10am 13 3 G 4 61° 85% - - 57° 63.6° 59.9° - - -
6/22 4:00am 18 1 G 3 61° 85% - - 57° 63.6° 59.9° - - -
6/22 3:50am 16 2 G 3 61° 84% - - 56° 63.6° 59.9° - - -
6/22 3:40am 38 1 G 3 61° 83% - - 56° 63.6° 59.9° - - -
6/22 3:30am 30 1 G 2 61° 83% - - 56° 63.6° 59.9° - - -
6/22 3:20am 5 1 G 3 61° 82% - - 56° 63.6° 59.9° - - -
6/22 3:10am 22 2 G 3 61° 82% - - 55° 63.6° 59.9° - - -
6/22 3:00am 19 1 G 3 61° 82% - - 56° 63.6° 59.9° - - -
6/22 2:50am 23 1 G 3 61° 81% - - 55° 63.6° 59.9° - - -
6/22 2:40am 34 1 G 2 61° 81% - - 55° 63.6° 59.9° - - -
6/22 2:30am 11 1 G 2 61° 81% - - 55° 63.6° 59.9° - - -
6/22 2:20am 5 1 G 2 60° 82% - - 55° 63.6° 59.9° - - -
6/22 2:10am 14 2 G 2 60° 82% - - 54° 63.6° 59.9° - - -
6/22 2:00am 356 2 G 3 60° 82% - - 55° 63.6° 60° - - -
6/22 1:50am 354 2 G 3 61° 81% - - 55° 63.6° 60.4° - - -
6/22 1:40am 346 1 G 1 61° 80% - - 55° 63.6° 60.4° - - -
6/22 1:30am 347 1 G 2 61° 79% - - 55° 63.6° 60.8° - - -
6/22 1:20am 355 1 G 2 61° 79% - - 55° 63.6° 61.2° - - -
6/22 1:10am 353 0 G 1 61° 79% - - 55° 63.6° 61.2° - - -
6/22 1:00am 354 2 G 3 62° 79% - - 55° 63.6° 61.5° - - -
6/22 12:50am 354 2 G 3 62° 78% - - 55° 63.6° 61.8° - - -
6/22 12:40am 346 2 G 2 62° 78% - - 55° 63.6° 62.1° - - -
6/22 12:30am 348 2 G 3 62° 78% - - 55° 63.6° 62.1° - - -
6/22 12:20am 350 2 G 3 63° 77% - - 56° 63.6° 62.6° - - -
6/22 12:10am 360 2 G 3 63° 76% - - 56° 63.6° 63° - - -
6/22 12:00am 338 2 G 4 64° 75% - - 56° 93.6° 58.3° - - -
6/21 11:50pm 340 1 G 3 64° 75% - - 56° 93.6° 58.3° - - -
6/21 11:40pm 333 2 G 3 65° 74% - - 56° 93.6° 58.3° - - -
6/21 11:30pm 339 1 G 2 65° 73% - - 56° 93.6° 58.3° - - -
6/21 11:20pm 309 0 G 1 65° 72% - - 56° 93.6° 58.3° - - -
6/21 11:10pm 329 1 G 2 66° 72% - - 56° 93.6° 58.3° - - -
6/21 11:00pm 332 2 G 3 66° 71% - - 56° 93.6° 58.3° - - -
6/21 10:50pm 335 1 G 2 66° 70% - - 56° 93.6° 58.3° - - -
6/21 10:40pm 318 0 G 1 67° 69% - - 56° 93.6° 58.3° - - -
6/21 10:30pm 314 0 G 1 67° 68% - - 56° 93.6° 58.3° - - -
6/21 10:20pm 274 0 G 1 68° 68% - - 57° 93.6° 58.3° - - -
6/21 10:10pm 313 1 G 2 68° 67% - - 57° 93.6° 58.3° - - -
6/21 10:00pm 297 1 G 2 69° 66% - - 57° 93.6° 58.3° - - -
6/21 9:50pm 222 1 G 3 70° 65% - - 57° 93.6° 58.3° - - -
6/21 9:40pm 204 1 G 3 70° 64% - - 58° 93.6° 58.3° - - -
6/21 9:30pm 198 2 G 4 71° 63% - - 58° 93.6° 58.3° - - -
6/21 9:20pm 182 3 G 4 71° 62% - - 58° 93.6° 58.3° - - -
6/21 9:10pm 184 3 G 5 72° 60% - - 58° 93.6° 58.3° - - -
6/21 9:00pm 183 3 G 6 73° 58% - - 58° 93.6° 58.3° - - -
6/21 8:50pm 178 3 G 5 74° 57% - - 58° 93.6° 58.3° - - -
6/21 8:40pm 196 2 G 4 75° 56% - - 58° 93.6° 58.3° - - -
6/21 8:30pm 325 0 G 2 75° 54% - - 58° 93.6° 58.3° - - -
6/21 8:20pm 228 1 G 2 76° 54% - - 58° 93.6° 58.3° - - -
6/21 8:10pm 210 2 G 4 77° 52% - - 58° 93.6° 58.3° - - -
6/21 8:00pm 205 2 G 4 77° 51% - - 58° 93.6° 58.3° - - -
6/21 7:50pm 209 2 G 4 78° 50% - - 58° 93.6° 58.3° - - -
6/21 7:40pm 213 3 G 5 79° 48% - - 58° 93.6° 58.3° - - -
6/21 7:30pm 212 3 G 4 80° 46% - - 57° 93.6° 58.3° - - -
6/21 7:20pm 213 3 G 5 81° 45% - - 57° 93.6° 58.3° - - -
6/21 7:10pm 209 3 G 5 82° 43% - - 57° 93.6° 58.3° - - -
6/21 7:00pm 210 4 G 7 83° 42% - - 57° 93.6° 58.3° - - -
6/21 6:50pm 207 4 G 6 83° 41% - - 57° 93.6° 58.3° - - -
6/21 6:40pm 206 4 G 7 83° 40% - - 57° 93.6° 58.3° - - -
6/21 6:30pm 210 4 G 7 84° 38% - - 56° 93.6° 58.3° - - -
6/21 6:20pm 202 4 G 8 85° 37% - - 56° 93.6° 58.3° - - -
6/21 6:10pm 207 4 G 6 86° 36% - - 56° 93.6° 58.3° - - -
6/21 6:00pm 210 4 G 8 86° 36% - - 56° 93.6° 58.3° - - -
6/21 5:50pm 208 5 G 8 86° 35% - - 55° 93.6° 58.3° - - -
6/21 5:40pm 209 4 G 7 87° 34% - - 55° 93.6° 58.3° - - -
6/21 5:30pm 203 4 G 8 87° 33% - - 55° 93.6° 58.3° - - -
6/21 5:20pm 208 5 G 9 87° 34% - - 55° 93.6° 58.3° - - -
6/21 5:10pm 210 5 G 9 87° 33% - - 55° 93.6° 58.3° - - -
6/21 5:00pm 206 5 G 9 88° 33% - - 55° 93.6° 58.3° - - -
6/21 4:50pm 209 6 G 9 87° 33% - - 55° 93.6° 58.3° - - -
6/21 4:40pm 211 5 G 9 88° 33% - - 55° 93.6° 58.3° - - -
6/21 4:30pm 202 6 G 9 88° 33% - - 55° 93.6° 58.3° - - -
6/21 4:20pm 208 5 G 8 89° 32% - - 55° 93.6° 58.3° - - -
6/21 4:10pm 203 5 G 10 89° 33% - - 55° 93.6° 58.3° - - -
6/21 4:00pm 204 6 G 9 89° 33% - - 56° 93.6° 58.3° - - -
6/21 3:50pm 201 5 G 10 89° 33% - - 56° 93.6° 58.3° - - -
6/21 3:40pm 204 6 G 10 89° 32% - - 55° 93.6° 58.3° - - -
6/21 3:30pm 194 6 G 9 90° 31% - - 55° 93.6° 58.3° - - -
6/21 3:20pm 193 6 G 11 90° 31% - - 55° 93.6° 58.3° - - -
6/21 3:10pm 197 6 G 11 90° 30% - - 55° 93.6° 58.3° - - -
6/21 3:00pm 206 6 G 10 91° 30% - - 55° 93.6° 58.3° - - -
6/21 2:50pm 215 6 G 10 91° 31% - - 56° 93.6° 58.3° - - -
6/21 2:40pm 195 6 G 11 91° 31% - - 56° 93.6° 58.3° - - -
6/21 2:30pm 208 5 G 10 91° 32% - - 57° 93.6° 58.3° - - -
6/21 2:20pm 207 6 G 10 91° 33% - - 57° 93.6° 58.3° - - -
6/21 2:10pm 203 6 G 11 91° 32% - - 58° 93.6° 58.3° - - -
6/21 2:00pm 199 6 G 11 91° 33% - - 58° 93.6° 58.3° - - -
6/21 1:50pm 212 6 G 11 92° 32% - - 58° 93.6° 58.3° - - -
6/21 1:40pm 204 6 G 10 92° 32% - - 58° 93.6° 58.3° - - -
6/21 1:30pm 209 5 G 10 93° 31% - - 58° 93.6° 58.3° - - -
6/21 1:20pm 193 6 G 11 93° 31% - - 58° 93.6° 58.3° - - -
6/21 1:10pm 211 5 G 9 93° 32% - - 58° 93.4° 58.3° - - -
6/21 1:00pm 216 5 G 9 92° 32% - - 58° 93.3° 58.3° - - -
6/21 12:50pm 193 5 G 10 93° 31% - - 58° 93.3° 58.3° - - -
6/21 12:40pm 195 5 G 8 93° 31% - - 58° 93.3° 58.3° - - -
6/21 12:30pm 187 4 G 7 92° 31% - - 58° 92.8° 58.3° - - -
6/21 12:20pm 205 4 G 9 91° 32% - - 57° 91.5° 58.3° - - -
6/21 12:10pm 201 4 G 10 91° 32% - - 57° 91.5° 58.3° - - -
6/21 12:00pm 198 4 G 8 91° 32% - - 57° 91.3° 58.3° - - -
6/21 11:50am 192 4 G 8 90° 32% - - 56° 90.7° 58.3° - - -
6/21 11:40am 185 4 G 7 89° 32% - - 56° 90.1° 58.3° - - -
6/21 11:30am 200 4 G 7 89° 32% - - 55° 89.7° 58.3° - - -
6/21 11:20am 186 3 G 6 88° 33% - - 55° 88.6° 58.3° - - -
6/21 11:10am 178 4 G 8 87° 34% - - 55° 87.7° 58.3° - - -
6/21 11:00am 193 3 G 6 87° 35% - - 56° 87.1° 58.3° - - -
6/21 10:50am 179 4 G 6 86° 37% - - 56° 86.4° 58.3° - - -
6/21 10:40am 195 3 G 6 85° 38% - - 56° 85.3° 58.3° - - -
6/21 10:30am 180 4 G 7 84° 40% - - 57° 84.3° 58.3° - - -
6/21 10:20am 186 3 G 6 83° 40% - - 57° 83.5° 58.3° - - -
6/21 10:10am 179 2 G 6 82° 42% - - 57° 83.4° 58.3° - - -
6/21 10:00am 187 4 G 7 81° 43% - - 57° 81.3° 58.3° - - -
6/21 9:50am 200 3 G 5 80° 46% - - 57° 80.1° 58.3° - - -
6/21 9:40am 180 3 G 6 79° 48% - - 57° 79.5° 58.3° - - -
6/21 9:30am 190 3 G 6 78° 49% - - 58° 79.1° 58.3° - - -
6/21 9:20am 184 3 G 5 77° 51% - - 58° 77.8° 58.3° - - -
6/21 9:10am 189 3 G 5 76° 54% - - 58° 76.6° 58.3° - - -
6/21 9:00am 196 3 G 5 75° 56% - - 58° 75.6° 58.3° - - -
6/21 8:50am 176 2 G 5 74° 57% - - 57° 74.5° 58.3° - - -
6/21 8:40am 192 2 G 4 73° 59% - - 58° 73.3° 58.3° - - -
6/21 8:30am 151 2 G 4 72° 60% - - 57° 72.1° 58.3° - - -
6/21 8:20am 144 1 G 4 70° 63% - - 57° 71.2° 58.3° - - -
6/21 8:10am 137 1 G 3 69° 65% - - 57° 69.9° 58.3° - - -
6/21 8:00am 119 1 G 2 68° 68% - - 57° 68.8° 58.3° - - -
6/21 7:50am 129 1 G 4 67° 71% - - 57° 67.6° 58.3° - - -
6/21 7:40am 153 1 G 2 66° 73% - - 57° 66.7° 58.3° - - -
6/21 7:30am 140 0 G 2 65° 76% - - 57° 66.1° 58.3° - - -
6/21 7:20am 143 1 G 2 63° 77% - - 56° 66.1° 58.3° - - -
6/21 7:10am 145 1 G 2 62° 78% - - 55° 66.1° 58.3° - - -
6/21 7:00am 65 1 G 2 60° 78% - - 53° 66.1° 58.3° - - -
6/21 6:50am 25 2 G 5 60° 78% - - 53° 66.1° 58.3° - - -
6/21 6:40am 22 3 G 4 59° 78% - - 53° 66.1° 58.3° - - -
6/21 6:30am 22 2 G 4 59° 79% - - 53° 66.1° 58.3° - - -
6/21 6:20am 28 2 G 4 59° 80% - - 53° 66.1° 58.3° - - -
6/21 6:10am 346 1 G 2 59° 79% - - 52° 66.1° 58.3° - - -
6/21 6:00am 9 1 G 3 59° 79% - - 52° 66.1° 58.3° - - -
6/21 5:50am 15 2 G 4 59° 80% - - 53° 66.1° 58.3° - - -
6/21 5:40am 13 2 G 4 59° 80% - - 52° 66.1° 58.3° - - -
6/21 5:30am 18 2 G 5 58° 80% - - 52° 66.1° 58.3° - - -
6/21 5:20am 10 3 G 5 59° 80% - - 52° 66.1° 58.4° - - -
6/21 5:10am 12 3 G 4 59° 79% - - 53° 66.1° 58.6° - - -
6/21 5:00am 21 2 G 3 59° 80% - - 53° 66.1° 58.7° - - -
6/21 4:50am 10 2 G 3 59° 79% - - 53° 66.1° 58.9° - - -
6/21 4:40am 21 2 G 5 59° 79% - - 53° 66.1° 59° - - -
6/21 4:30am 17 3 G 5 59° 80% - - 53° 66.1° 59° - - -
6/21 4:20am 15 4 G 5 60° 79% - - 53° 66.1° 59.1° - - -
6/21 4:10am 360 2 G 3 60° 79% - - 53° 66.1° 59.5° - - -
6/21 4:00am 8 1 G 2 60° 79% - - 53° 66.1° 59.8° - - -
6/21 3:50am 16 2 G 3 60° 78% - - 53° 66.1° 59.8° - - -
6/21 3:40am 16 3 G 4 60° 78% - - 53° 66.1° 60° - - -
6/21 3:30am 6 2 G 3 60° 78% - - 53° 66.1° 60.2° - - -
6/21 3:20am 18 2 G 4 61° 77% - - 54° 66.1° 60.4° - - -
6/21 3:10am 17 3 G 4 61° 77% - - 54° 66.1° 60.6° - - -
6/21 3:00am 13 2 G 3 61° 76% - - 54° 66.1° 61.2° - - -
6/21 2:50am 8 2 G 3 62° 76% - - 54° 66.1° 61.4° - - -
6/21 2:40am 21 2 G 3 62° 76% - - 54° 66.1° 61.4° - - -
6/21 2:30am 15 3 G 5 62° 76% - - 54° 66.1° 61.4° - - -
6/21 2:20am 15 3 G 4 62° 75% - - 54° 66.1° 61.7° - - -
6/21 2:10am 17 2 G 4 62° 75% - - 54° 66.1° 62.2° - - -
6/21 2:00am 17 3 G 4 63° 75% - - 55° 66.1° 62.4° - - -
6/21 1:50am 9 3 G 4 63° 73% - - 55° 66.1° 62.7° - - -
6/21 1:40am 347 1 G 2 64° 73% - - 55° 66.1° 63.4° - - -
6/21 1:30am 23 1 G 2 64° 73% - - 55° 66.1° 63.5° - - -
6/21 1:20am 8 2 G 3 64° 73% - - 55° 66.1° 63.5° - - -
6/21 1:10am 16 3 G 4 64° 72% - - 55° 66.1° 63.9° - - -
6/21 1:00am 15 3 G 5 65° 71% - - 55° 66.1° 64.2° - - -
6/21 12:50am 347 0 G 1 65° 71% - - 56° 66.1° 64.9° - - -
6/21 12:40am 348 1 G 1 65° 71% - - 56° 66.1° 65.1° - - -
6/21 12:30am 8 1 G 3 66° 70% - - 56° 66.1° 65.3° - - -
6/21 12:20am 14 2 G 3 66° 70% - - 56° 66.1° 65.5° - - -
6/21 12:10am 8 3 G 4 66° 71% - - 56° 66.1° 65.6° - - -
6/21 12:00am 17 3 G 4 66° 70% - - 56° 96° 61.2° - - -
6/20 11:50pm 360 2 G 3 67° 69% - - 56° 96° 61.2° - - -
6/20 11:40pm 347 1 G 3 67° 68% - - 56° 96° 61.2° - - -
6/20 11:30pm 344 1 G 3 68° 67% - - 56° 96° 61.2° - - -
6/20 11:20pm 5 1 G 3 68° 67% - - 57° 96° 61.2° - - -
6/20 11:10pm 7 1 G 3 68° 67% - - 57° 96° 61.2° - - -
6/20 11:00pm 332 1 G 2 69° 65% - - 56° 96° 61.2° - - -
6/20 10:50pm 345 0 G 1 69° 64% - - 56° 96° 61.2° - - -
6/20 10:40pm 312 1 G 1 70° 63% - - 56° 96° 61.2° - - -
6/20 10:30pm 355 0 G 2 70° 62% - - 57° 96° 61.2° - - -
6/20 10:20pm 318 0 G 1 71° 61% - - 57° 96° 61.2° - - -
6/20 10:10pm 344 1 G 2 71° 60% - - 57° 96° 61.2° - - -
6/20 10:00pm 310 0 G 2 73° 59% - - 58° 96° 61.2° - - -
6/20 9:50pm 198 1 G 2 73° 59% - - 58° 96° 61.2° - - -
6/20 9:40pm 171 1 G 3 74° 55% - - 57° 96° 61.2° - - -
6/20 9:30pm 196 1 G 3 75° 53% - - 57° 96° 61.2° - - -
6/20 9:20pm 67 1 G 2 76° 51% - - 56° 96° 61.2° - - -
6/20 9:10pm 6 1 G 2 76° 49% - - 55° 96° 61.2° - - -
6/20 9:00pm 359 1 G 2 77° 47% - - 55° 96° 61.2° - - -
6/20 8:50pm 355 1 G 3 77° 47% - - 55° 96° 61.2° - - -
6/20 8:40pm 350 1 G 3 78° 46% - - 55° 96° 61.2° - - -
6/20 8:30pm 341 2 G 2 79° 43% - - 55° 96° 61.2° - - -
6/20 8:20pm 336 1 G 2 80° 42% - - 55° 96° 61.2° - - -
6/20 8:10pm 344 1 G 2 81° 41% - - 55° 96° 61.2° - - -
6/20 8:00pm 347 1 G 2 83° 39% - - 55° 96° 61.2° - - -
6/20 7:50pm 347 1 G 2 84° 38% - - 55° 96° 61.2° - - -
6/20 7:40pm 286 0 G 2 84° 37% - - 55° 96° 61.2° - - -
6/20 7:30pm 271 1 G 2 86° 34% - - 54° 96° 61.2° - - -
6/20 7:20pm 237 2 G 4 87° 31% - - 53° 96° 61.2° - - -
6/20 7:10pm 231 2 G 4 88° 30% - - 53° 96° 61.2° - - -
6/20 7:00pm 228 2 G 4 89° 29% - - 53° 96° 61.2° - - -
6/20 6:50pm 218 2 G 4 89° 29% - - 53° 96° 61.2° - - -
6/20 6:40pm 222 2 G 4 89° 29% - - 53° 96° 61.2° - - -
6/20 6:30pm 217 2 G 4 89° 29% - - 53° 96° 61.2° - - -
6/20 6:20pm 195 3 G 5 89° 29% - - 53° 96° 61.2° - - -
6/20 6:10pm 197 3 G 6 89° 29% - - 53° 96° 61.2° - - -
6/20 6:00pm 191 4 G 8 89° 30% - - 53° 96° 61.2° - - -